Weather History for Charlottesville, VA

Change the Weather History Date:

Wednesday, July 10, 2013

  Actual Average Record
Temperature  
Mean Temperature 80 °F 76 °F  
Max Temperature 89 °F 87 °F 106 °F (1936)
Min Temperature 71 °F 65 °F 50 °F (1913)
Degree Days  
Heating Degree Days 0 0  
Month to date heating degree days 0 0  
Since 1 June heating degree days 2 11  
Since 1 July heating degree days 0 0  
Cooling Degree Days 15 11  
Month to date cooling degree days 129 105  
Year to date cooling degree days 522 410  
Since 1 June cooling degree days 375 324  
Growing Degree Days 29 (Base 50)    
Moisture  
Dew Point 72 °F    
Average Humidity 81    
Maximum Humidity 100    
Minimum Humidity 61    
Precipitation  
Precipitation 0.28 in 0.13 in 0.28 in (2013)
Month to date precipitation 2.29 1.29  
Year to date precipitation 25.98 21.49  
Sea Level Pressure  
Sea Level Pressure 29.97 in    
Wind  
Wind Speed 5 mph (SSW)    
Max Wind Speed 22 mph    
Max Gust Speed 29 mph    
Visibility 8 miles    
Events Rain    
T = Trace of Precipitation, MM = Missing Value Source: NWS Daily Summary

Daily Weather History Graph

Daily Weather History Graph

Search for Another Location

Airport:

Trip Planner

Search our weather history database for the weather conditions in past years. The results will help you decide how hot, cold, wet, or windy it might be!

Date:

Astronomy

Jul. 10, 2013 Rise Set
Actual Time 5:59 AM EDT 8:38 PM EDT
Civil Twilight 5:28 AM EDT 9:09 PM EDT
Nautical Twilight 4:50 AM EDT 9:47 PM EDT
Astronomical Twilight 4:06 AM EDT 10:31 PM EDT
Moon 8:16 AM EDT (7/10) 9:50 PM EDT (7/10)
Length of Visible Light 15h 40m
Length of Day
14h 38m
Waxing Crescent, 5% of the Moon is Illuminated
Jul 10
Waxing Crescent
Jul 15
First Quarter
Jul 22
Full
Jul 29
Last Quarter
Aug 6
New

Hourly Weather History & Observations

Time (EDT) Temp. Heat Index Dew Point Humidity Pressure Visibility Wind Dir Wind Speed Gust Speed Precip Events Conditions
12:53 AM 75.9 °F - 73.0 °F 91% 30.02 in 9.0 mi South 4.6 mph - N/A   Clear
1:53 AM 75.9 °F - 73.0 °F 91% 30.01 in 8.0 mi SW 3.5 mph - N/A   Clear
2:53 AM 73.9 °F - 73.0 °F 97% 29.99 in 8.0 mi South 4.6 mph - N/A   Clear
3:53 AM 73.9 °F - 72.0 °F 93% 29.98 in 7.0 mi SSW 8.1 mph - N/A   Clear
4:53 AM 73.9 °F - 72.0 °F 93% 29.99 in 6.0 mi South 5.8 mph - N/A   Overcast
5:53 AM 73.9 °F - 72.0 °F 93% 29.99 in 7.0 mi SSW 5.8 mph - N/A   Overcast
6:53 AM 73.9 °F - 72.0 °F 93% 29.99 in 6.0 mi SSW 5.8 mph - N/A   Mostly Cloudy
7:53 AM 75.0 °F - 73.0 °F 94% 30.00 in 8.0 mi South 5.8 mph - N/A   Scattered Clouds
8:53 AM 75.9 °F - 73.0 °F 91% 30.01 in 9.0 mi SSW 5.8 mph - N/A   Mostly Cloudy
9:53 AM 75.0 °F - 73.9 °F 96% 30.01 in 5.0 mi Calm Calm - 0.03 in   Overcast
10:05 AM 75.2 °F - 73.4 °F 94% 30.03 in 7.0 mi Calm Calm - N/A   Mostly Cloudy
10:44 AM 77.0 °F - 73.4 °F 89% 30.03 in 4.0 mi SSW 4.6 mph - N/A   Mostly Cloudy
10:53 AM 77.0 °F - 73.9 °F 90% 30.01 in 4.0 mi SW 3.5 mph - N/A   Mostly Cloudy
11:32 AM 80.6 °F 86.2 °F 75.2 °F 84% 30.03 in 4.0 mi Variable 3.5 mph - N/A   Haze
11:45 AM 80.6 °F 86.2 °F 75.2 °F 84% 30.03 in 10.0 mi Calm Calm - N/A   Overcast
11:53 AM 80.1 °F 85.1 °F 75.0 °F 85% 30.01 in 10.0 mi Calm Calm - N/A   Overcast
12:53 PM 82.0 °F 88.6 °F 75.0 °F 79% 30.00 in 10.0 mi SSW 4.6 mph - N/A   Overcast
1:53 PM 84.9 °F 92.1 °F 73.9 °F 69% 29.97 in 10.0 mi Calm Calm - N/A   Mostly Cloudy
2:53 PM 87.1 °F 94.5 °F 73.0 °F 63% 29.94 in 10.0 mi NNW 4.6 mph - N/A   Mostly Cloudy
3:53 PM 86.0 °F 91.5 °F 71.1 °F 61% 29.91 in 10.0 mi Calm Calm - N/A   Clear
4:29 PM 73.4 °F - 68.0 °F 83% 29.95 in 0.8 mi SSW 12.7 mph 28.8 mph 0.15 in Rain Heavy Rain
4:42 PM 73.4 °F - 69.8 °F 88% 29.96 in 2.5 mi SSW 6.9 mph - 0.24 in Rain Rain
4:49 PM 73.4 °F - 69.8 °F 88% 29.96 in 5.0 mi SSW 8.1 mph - 0.25 in Rain Light Rain
4:53 PM 73.0 °F - 71.1 °F 93% 29.94 in 10.0 mi South 12.7 mph - 0.25 in Rain Light Rain
5:53 PM 75.0 °F - 73.0 °F 94% 29.91 in 10.0 mi Calm Calm - 0.00 in   Clear
6:53 PM 73.9 °F - 73.0 °F 97% 29.92 in 9.0 mi SSE 6.9 mph - 0.00 in   Mostly Cloudy
7:53 PM 73.9 °F - 72.0 °F 93% 29.94 in 10.0 mi SSW 5.8 mph - N/A   Overcast
8:25 PM 73.4 °F - 71.6 °F 94% 29.96 in 10.0 mi SSW 6.9 mph - N/A   Overcast
8:53 PM 73.0 °F - 71.1 °F 93% 29.94 in 10.0 mi South 10.4 mph - N/A   Overcast
9:09 PM 73.4 °F - 71.6 °F 94% 29.96 in 10.0 mi SSW 10.4 mph - N/A   Mostly Cloudy
9:53 PM 73.0 °F - 70.0 °F 90% 29.91 in 10.0 mi SSW 3.5 mph - 0.00 in Rain Light Rain
10:53 PM 72.0 °F - 70.0 °F 93% 29.92 in 9.0 mi South 6.9 mph - 0.00 in   Partly Cloudy
11:41 PM 71.6 °F - 71.6 °F 100% 29.94 in 9.0 mi South 6.9 mph - N/A   Overcast
11:51 PM 71.6 °F - 71.6 °F 100% 29.94 in 7.0 mi SSW 5.8 mph - N/A   Overcast
11:53 PM 72.0 °F - 71.1 °F 97% 29.92 in 7.0 mi SSW 5.8 mph - N/A   Overcast